Home   Weather   Meschede   Past weeks
Flag for Germany

Past Weather in Meschede, North Rhine-Westphalia, Germany — Yesterday and Last 2 Weeks

Now
30 °F

Passing clouds.


Feels Like: 24 °F
Forecast: 42 / 28 °F
Wind: 6 mph from Southwest

Location: Paderborn / Lippstadt

Current Time: Jan 22, 2020 at 7:19:08 am

Latest Report: Jan 22, 2020 at 6:20 am


Visibility: N/A

Pressure: 30.57 "Hg

Humidity: 86%

Dew Point: 27 °F

Location of MeschedeLocation

Past Weather in Meschede — Graph

°F

Meschede Temperature Yesterday

Maximum temperature yesterday: 41 °F (at 1:50 pm)
Minimum temperature yesterday: 25 °F (at 6:50 am)
Average temperature yesterday: 32 °F

High & Low Weather Summary for the Past Weeks

 TemperatureHumidityPressure
High55 °F (Jan 15, 1:50 pm)100% (Jan 7, 6:20 am)30.92 "Hg (Jan 7, 6:20 am)
Low25 °F (Jan 21, 6:50 am)47% (Jan 15, 1:50 pm)29.71 "Hg (Jan 14, 5:20 am)
Average43 °F82%30.24 "Hg
* Reported Jan 7 6:20 am — Jan 22 6:20 am, Meschede. Weather by CustomWeather, © 2020

Note: Actual official high and low records may vary slightly from our data, if they occured in-between our weather recording intervals... More about our weather records

Meschede Weather History for the Previous 24 Hours

Scroll right to see more
 ConditionsComfort  
Time TempWeatherWind HumidityBarometerVisibility
6:20 am
Wed, Jan 22
30 °FPassing clouds.6 mph86%30.57 "HgN/A
5:50 am30 °FPassing clouds.7 mph86%30.57 "HgN/A
5:20 am30 °FOvercast.3 mph93%30.57 "HgN/A
4:50 am30 °FOvercast.5 mph86%30.60 "HgN/A
4:20 am30 °FPassing clouds.8 mph93%30.60 "HgN/A
3:50 am30 °FPassing clouds.9 mph86%30.57 "HgN/A
3:20 am28 °FClear.7 mph93%30.60 "Hg10 mi
2:50 am30 °FClear.8 mph86%30.60 "Hg10 mi
2:20 am28 °FClear.5 mph86%30.63 "Hg10 mi
1:50 am28 °FClear.7 mph86%30.63 "Hg10 mi
1:20 am30 °FClear.7 mph86%30.63 "Hg10 mi
12:50 am28 °FClear.3 mph86%30.63 "Hg10 mi
12:20 am28 °FPassing clouds.3 mph86%30.63 "HgN/A
11:50 pm
Tue, Jan 21
28 °FClear.2 mph80%30.63 "Hg10 mi
11:20 pm30 °FClear.5 mph86%30.63 "Hg10 mi
10:20 pm30 °FClear.2 mph80%30.63 "Hg10 mi
9:50 pm32 °FClear.2 mph80%30.66 "Hg10 mi
9:20 pm36 °FClear.3 mph75%30.66 "Hg10 mi
8:50 pm34 °FClear.9 mph81%30.66 "Hg10 mi
8:20 pm32 °FClear.9 mph87%30.66 "Hg10 mi
7:50 pm30 °FClear.5 mph86%30.66 "Hg10 mi
7:20 pm32 °FPassing clouds.7 mph80%30.69 "HgN/A
6:50 pm32 °FClear.12 mph87%30.66 "Hg10 mi
6:20 pm32 °FClear.3 mph87%30.69 "Hg10 mi
5:50 pm34 °FClear.2 mph75%30.69 "Hg10 mi
5:20 pm36 °FClear.2 mph75%30.69 "Hg10 mi
4:50 pm36 °FSunny.2 mph75%30.69 "Hg10 mi
4:20 pm37 °FSunny.1 mph70%30.69 "Hg10 mi
3:50 pm39 °FSunny.2 mph65%30.72 "Hg10 mi
3:20 pm39 °FPassing clouds.3 mph61%30.72 "HgN/A
2:50 pm41 °FPassing clouds.5 mph57%30.72 "HgN/A
2:20 pm41 °FPassing clouds.5 mph57%30.72 "HgN/A
1:50 pm41 °FSunny.3 mph57%30.74 "Hg10 mi
1:20 pm39 °FPassing clouds.5 mph65%30.74 "HgN/A
12:50 pm39 °FPassing clouds.3 mph70%30.74 "HgN/A
12:20 pm37 °FSunny.5 mph70%30.74 "Hg10 mi
11:50 am36 °FSunny.2 mph75%30.77 "Hg10 mi
11:20 am36 °FPassing clouds.3 mph75%30.77 "HgN/A
10:50 am34 °FSunny.6 mph75%30.77 "Hg10 mi
10:20 am30 °FSunny.3 mph86%30.77 "Hg10 mi
9:50 am30 °FPassing clouds.7 mph80%30.77 "HgN/A
9:20 am28 °FPassing clouds.7 mph86%30.74 "HgN/A
8:50 am27 °FSunny.3 mph93%30.74 "Hg10 mi
8:20 am27 °FSunny.9 mph93%30.74 "Hg10 mi
7:50 am25 °FClear.2 mph93%30.77 "Hg10 mi
7:20 am25 °FPassing clouds.3 mph93%30.77 "HgN/A
Weather by CustomWeather, © 2020

See weather overview

Advertising